Regional Weather Roundup
Issued by NWS

Home | Current Version | Previous Version | Graphics & Text | Print | Product List | Glossary Off
Versions: 1 2 3 4 5 6 7 8 9 10 11 12 13 14 15 16 17 18 19 20 21 22 23 24 25 26 27 28 29 30 31 32 33 34 35 36 37 38 39 40 41 42 43 44 45 46 47 48 49 50

000
ASUS43 KMKX 122300
RWRWI

WISCONSIN REGIONAL WEATHER ROUNDUP
NATIONAL WEATHER SERVICE MILWAUKEE/SULLIVAN WI
500 PM CST FRI FEB 12 2016

NOTE: "FAIR" INDICATES FEW OR NO CLOUDS BELOW 12,000 FEET WITH NO
SIGNIFICANT WEATHER AND/OR OBSTRUCTIONS TO VISIBILITY.

WIZ001-002-006>008-014>016-023>028-130000-
NORTHWEST WISCONSIN

CITY           SKY/WX    TMP DP  RH WIND       PRES   REMARKS
SUPERIOR ARPT  CLEAR      4 -14  42 NW15      30.49R WCI -14
ASHLAND        CLEAR      3 -12  49 NW14      30.43R WCI -15
HAYWARD        CLEAR      3 -17  39 NW12G18   30.41R WCI -13
SIREN          CLEAR      6 -17  34 N12G18    30.46R WCI -10
CUMBERLAND     CLEAR      5 -17  36 NW16G23   30.41R WCI -14
RICE LAKE      CLEAR      6 -15  36 NW8       30.43R WCI  -7
CHETEK         CLEAR      6 -14  40 NW7       30.42R WCI  -6
LADYSMITH      CLEAR      4 -13  44 NW16G24   30.39R WCI -15
EAU CLAIRE     NOT AVBL
MENOMONIE      CLEAR      9 -14  35 NW14      30.45R WCI  -8
NEW RICHMOND   CLEAR      6 -11  44 NW20G25   30.46R WCI -13
OSCEOLA        CLEAR      8 -12  41 NW14G20   30.51R WCI  -9
$$

WIZ003>005-009-010-017-018-130000-
NORTH CENTRAL WISCONSIN

CITY           SKY/WX    TMP DP  RH WIND       PRES   REMARKS
MANITOWISH WTR CLOUDY    -2 -10  70 NW18      30.28R HAZE    WCI -24
ARBOR VITAE    CLEAR      1  -9  60 NW12G23   30.28R WCI -15
WOODRUFF       CLEAR      1  -9  60 NW12G23   30.28R WCI -15
RHINELANDER    MOCLDY    -1 -13  56 NW15G22   30.26R WCI -21
EAGLE RIVER    CLOUDY     0 -11  60 NW15G26   30.24R HAZE    WCI -20
LAND O LAKES   MOCLDY    -1  -9  66 NW13G20   30.25R WCI -19
PHILLIPS       CLEAR      0 -14  51 N13G21    30.31R WCI -18
TOMAHAWK       CLOUDY     1 -10  60 NW9G16    30.29R WCI -15
MEDFORD        CLEAR      3 -12  51 NW18G24   30.29R WCI -18
MERRILL        PTCLDY     3 -12  49 N15G25    30.30R WCI -15
$$

WIZ029-030-035-036-043>047-130000-
CENTRAL WISCONSIN

CITY           SKY/WX    TMP DP  RH WIND       PRES   REMARKS
WAUSAU         PTCLDY     5 -11  47 NW15G26   30.29R WCI -13
MOSINEE        PTCLDY     5  -9  51 NW20G29   30.31R WCI -15
MARSHFIELD     CLEAR      5 -13  43 NW23      30.31R WCI -17
STEVENS POINT  CLEAR      6 -13  42 NW14G23   30.30R WCI -11
WAUPACA        CLEAR     11 -12  34 NW20G25   30.30R WCI  -7
WAUTOMA        NOT AVBL
WISC RAPIDS    CLEAR      7 -12  41 N22G28    30.34R WCI -14
CAMP DOUGLAS   CLEAR      9 -10  41 NW20G29   30.35R WCI -10
$$

WIZ011>013-019>022-031-037>040-048>050-130000-
NORTHEAST WISCONSIN

CITY           SKY/WX    TMP DP  RH WIND       PRES   REMARKS
ANTIGO         MOCLDY     0 -12  56 NW15G25   30.24R WCI -19
SHAWANO        PTCLDY     9 -11  40 N13       30.30R WCI  -7
OCONTO         MOCLDY     7  -7  53 NW16G22   30.27R WCI -11
STURGEON BAY     N/A      7 N/A N/A NW22G28   30.26R WCI -14
GREEN BAY      CLEAR      8  -8  48 NW14      30.28R WCI  -8
MANITOWOC      NOT AVBL
APPLETON       PTCLDY     9 -13  37 NW17G29   30.25R WCI -10
CLINTONVILLE   PTCLDY    10 -13  34 NW10G21   30.28R WCI  -3
OSHKOSH        PTCLDY    10  -9  42 NW17G26   30.26R WCI  -8
$$

WIZ032>034-041-042-053>061-130000-
SOUTHWEST WISCONSIN

CITY           SKY/WX    TMP DP  RH WIND       PRES   REMARKS
LA CROSSE      CLEAR     10  -7  46 NW18G29   30.42R WCI  -8
SPARTA         CLEAR     11  -7  44 NW14G21   30.39R WCI  -4
VIROQUA        CLEAR     10  -7  45 N16       30.32R WCI  -7
BOSCOBEL       CLEAR     15  -7  37 N17G28    30.39R WCI  -1
PRAIRIE DU CHI CLEAR     14  -4  44 NW14G21   30.39R WCI  -1
PLATTEVILLE    CLEAR     15   1  53 NW16      30.32R WCI   0
$$

WIZ056-057-062-063-064-067-068-130000-
SOUTH CENTRAL WISCONSIN

CITY           SKY/WX    TMP DP  RH WIND       PRES   REMARKS
REEDSBURG      CLEAR     12  -7  41 NW12G23   30.32R WCI  -2
BARABOO/DELLS  CLEAR     12  -9  39 NW20      30.29R WCI  -6
LONE ROCK      NOT AVBL
MINERAL POINT  CLEAR     18  -6  35 NW16G23   30.29R WCI   3
MADISON        PTCLDY    12  -6  44 NW14G24   30.29R WCI  -3
MIDDLETON      CLEAR     15  -4  42 NW16G22   30.29R WCI   0
WATERTOWN      CLEAR     14  -4  45 NW18G28   30.25R WCI  -3
MONROE         PTCLDY    18  -4  38 NW17G30   30.25R WCI   2
JANESVILLE     PTCLDY    18  -4  38 NW23G30   30.27R WCI   0
$$

WIZ051-052-058>065-066-070>072-130000-
SOUTHEAST WISCONSIN

CITY           SKY/WX    TMP DP  RH WIND       PRES   REMARKS
MILWAUKEE      PTCLDY    14  -5  42 NW17G28   30.24R WCI  -3
WAUKESHA       PTCLDY    10  -8  44 NW20G31   30.24R WCI  -8
MILWAUKEE/TIMM PTCLDY    12  -6  44 NW20G30   30.26R WCI  -6
RACINE         PTCLDY    15  -5  40 NW15G25   30.25R WCI   0
BURLINGTON     CLEAR     13  -5  43 NW18G25   30.25R WCI  -4
KENOSHA        CLEAR     16  -5  39 NW24G35   30.23R WCI  -2
FOND DU LAC    CLEAR     11  -8  42 NW20G26   30.26R WCI  -7
SHEBOYGAN      MOCLDY    11  -7  44 NW16G28   30.24R WCI  -6
WEST BEND      MOCLDY    12  -6  44 NW15G28   30.23R WCI  -4
JUNEAU         CLEAR     10  -6  48 NW16G25   30.28R WCI  -7
$$

LSZ147-162-130000-
LAKE SUPERIOR

STATION/POSITION TIME  TEMP    WIND        PRES    WAVE
                       AIR SEA DIR/SP/G            HT/PER
                 (UTC) (F)     (DEG/KT/KT) (MB)    (FT/S)
DEVILS ISLAND    2200    3     310/ 17/ 23 1031.9R
SAXON HARBOR     2240    5                 1029.5R
$$

LMZ867-665-643>646-130000-
LAKE MICHIGAN

STATION/POSITION TIME  TEMP    WIND        PRES    WAVE
                       AIR SEA DIR/SP/G            HT/PER
                 (UTC) (F)     (DEG/KT/KT) (MB)    (FT/S)
CHAMBERS ISLAND  2200    7     310/ 18/ 25 1023.4R
SISTER BAY       2119    9     340/ 29/ 37   N/A
ALGOMA LAKESHORE 2211          320/ 19/ 30   N/A
KEWAUNEE LAKESHO 2200   11     320/ 15/ 26 1021.8R
SHEBOYGAN LAKESH 2200   14     320/ 17/ 20 1024.3R
PORT WASHINGTON  2200   15     300/ 10/ 21 1024.0R
MILWAUKEE LAKESH 2210   15     320/ 16/ 24   N/A
KENOSHA   LAKESH 2200   18     320/ 25/ 35 1022.4R
$$

TC  - TEMPERATURE IN CELSIUS
VSB - VISIBILITY IN STATUTE MILES
WCI - WIND CHILL INDEX
HX  - HEAT INDEX




USA.gov is the U.S. government's official web portal to all federal, state and local government web resources and services.